Flag for Canada Weather past 2 weeks in Arviat, Nunavut, Canada

Now
14 °F

Sunny.


Feels Like: -2 °F
Forecast: 2 / 13 °F
Wind: 16 mph from Northwest

Location: Arviat Airport

Current Time: May 6, 2015 at 2:39:22 PM

Latest Report: May 6, 2015 at 2:00 PM


Visibility: 15 mi

Pressure: 30.37 "Hg

Humidity: 85%

Dew point: 10 °F

Location of ArviatLocation

Historic Weather in Arviat — Graph

°F

Arviat temperature yesterday

Maximum temperature yesterday: 16 °F (at 1:00 PM)
Minimum temperature yesterday: 7 °F (at 6:00 AM)
Average temperature yesterday: 12 °F

Past Weeks' High & Low Weather Summary

 TemperatureHumidityPressure
High37 °F (May 1, 4:00 PM)100% (Apr 23, 9:00 PM)30.44 "Hg (Apr 23, 9:00 PM)
Low-4 °F (Apr 22, 5:00 AM)69% (Apr 25, 3:00 PM)29.57 "Hg (May 1, 11:00 PM)
Average17 °F91%30.09 "Hg
* Reported Apr 21 1:00 PM — May 6 1:00 PM, Arviat, Weather by CustomWeather, © 2015

Note: Actual official high and low records may vary slightly from our data, if they occured in-between our weather recording intervals... More about our weather records

Advertising

Arviat weather history for previous 24 hours

 ConditionsComfort  
Time TempWeatherWind HumidityBarometerVisibility
1:00 PM
Wed, May 6
12 °FSunny.17 mph85%30.36 "Hg15 mi
12:00 PM10 °FSunny.15 mph85%30.36 "Hg12 mi
11:00 AM9 °FSunny.23 mph78%30.34 "Hg12 mi
10:00 AM7 °FSunny.20 mph78%30.34 "Hg12 mi
9:00 AM5 °FSunny.21 mph85%30.33 "Hg12 mi
8:00 AM3 °FSunny.14 mph85%30.33 "Hg12 mi
7:00 AM1 °FSunny.20 mph85%30.30 "Hg12 mi
6:00 AM1 °FSunny.17 mph92%30.30 "Hg9 mi
5:00 AM1 °FClear.12 mph92%30.31 "Hg9 mi
4:00 AM3 °FClear.13 mph85%30.30 "Hg9 mi
3:00 AM3 °FClear.14 mph92%30.28 "Hg9 mi
2:00 AM5 °FClear.16 mph85%30.26 "Hg9 mi
1:00 AM7 °FClear.16 mph85%30.24 "Hg9 mi
12:00 AM7 °FClear.17 mph92%30.23 "Hg9 mi
11:00 PM
Tue, May 5
9 °FClear.15 mph85%30.23 "Hg9 mi
10:00 PM9 °FSunny.15 mph92%30.23 "Hg9 mi
9:00 PM10 °FSunny.21 mph92%30.21 "Hg9 mi
8:00 PM12 °FLight snow. Sunny.24 mph85%30.19 "Hg7 mi
7:56 PM12 °FLight snow. Sunny.23 mph85%30.20 "Hg7 mi
7:00 PM14 °FLight snow. Sunny.23 mph85%30.18 "Hg2 mi
6:00 PM14 °FSnow. Sunny.28 mph92%30.17 "Hg1 mi
5:00 PM14 °FSunny.26 mph92%30.15 "Hg1 mi
4:00 PM16 °FSunny.29 mph86%30.14 "Hg1 mi
3:00 PM16 °FSunny.32 mph86%30.13 "Hg1 mi
2:00 PM16 °FSunny.29 mph86%30.11 "Hg1 mi
Weather by CustomWeather, © 2015

See weather overviewHow to use our weather pages